NILESAT 301

Last updated on Sun Apr 12 2026 00:02:56 GMT+0000 (Coordinated Universal Time)

1 52817U 22061A 26101.30534948 -.00000056 00000+0 00000+0 0 9990 2 52817 0.0513 26.7983 0005942 348.1041 287.5519 1.00271611 14067
UTC large
Height (km)
Speed (km/s)
/
Latitude / Longitude
Inclination (degrees)
Orbital Period (minutes)
Azimuth
Elevation
Range (km)
Doppler Factor

Next 0 passes for location: London (51.5072 / 0.1276)

Sorry there are no passes over London.
NILESAT 301